www.pogodaiklimat.ru

Погода и климат >> Архив погоды >> Россия >> Оренбургская область >> Орск


АРХИВ ПОГОДЫ в Орске

Время (UTC), дата Ветер
(напр.,м/с)
 
Видим.   Явления Облачность Т
(С)
Тd
(С)
f
(%)
Тe
(С)
Тes
(С)
Комфортность P
(гПа)
Po
(гПа)
Тmin
(С)
Tmax
(С)
R
(мм)
R24
(мм)
S
(см)
12 18.05 З 6-10
{12}
10 км ясно +17.2 -1.4 28 +16 +19 прохладно 1008.2 975.1
15 18.05 З 4
{11}
10 км 4/4 1000 м
[Sc diur, vesp]
+15.4 -0.6 33 +15 +15 по сезону 1008.2 974.9 +17.4
18 18.05 ЮЗ 4 10 км 6/0
[Ac trans]
+10.3 +1.1 53 +8 +8 холодно 1008.1 974.2
21 18.05 З 2 10 км 6/0
[Ac trans]
+11.4 +1.6 51 +11 +11 по сезону 1007.1 973.4
00 19.05 З 3 10 км в посл. час ливневой дождь 8/8 1500 м
[Cb cap]
+9.4 +6.4 82 +7 +7 по сезону 1006.9 973.0
03 19.05 З 4 10 км 8/3 1500 м
[Cb cap Ac trans]
+10.0 +3.8 65 +8 +9 прохладно 1006.8 973.0 +9.1 0.3
06 19.05 З 6-12
{12}
10 км 9/4 1000 м
[Cb cap Ac As]
+10.1 +1.1 54 +7 +8 очень
холодно
1008.0 974.1
09 19.05 СЗ 7-11
{13}
10 км 4/4 1500 м
[Cu hum]
+15.3 -6.2 22 +14 +17 прохладно 1007.4 974.1
12 19.05 З 5-13
{12}
10 км 4/4 1500 м
[Cu hum]
+16.0 -7.5 19 +15 +18 холодно 1007.5 974.3
15 19.05 З 2
{13}
10 км 5/0
[Ac As]
+13.3 -4.4 29 +13 +13 прохладно 1007.8 974.3 +16.3
18 19.05 ЮЗ 2 10 км 8/0
[Ac trans]
+10.6 -3.0 38 +10 +10 прохладно 1008.0 974.2
21 19.05 С 2 10 км {ливн. осадки} 8/8 1500 м
[Cb cap]
+6.8 +2.7 75 +5 +5 холодно 1008.7 974.4
00 20.05 З 2 10 км {ливн. осадки} 6/0
[Ac trans]
+4.0 +1.7 85 +1 +1 холодно 1009.4 974.7
03 20.05 СЗ 5 10 км 4/0
[Ac trans]
+6.8 -0.7 59 +3 +5 очень
холодно
1010.5 976.1 +3.5 0.0
06 20.05 СЗ 7
{11}
10 км 9/9 1500 м
[Cu med, cong]
+10.3 -3.8 37 +7 +8 очень
холодно
1010.5 976.5
09 20.05 СЗ 5
{11}
10 км 9/9 1500 м
[Cu med, cong]
+12.5 -3.8 32 +11 +12 очень
холодно
1010.2 976.5
12 20.05 СЗ 6
{10}
10 км 8/8 1500 м
[Cu hum]
+13.9 -5.5 26 +12 +13 очень
холодно
1010.1 976.6
15 20.05 СЗ 6 10 км 5/5 1500 м
[Cu hum]
+11.4 -4.5 33 +9 +9 очень
холодно
1011.2 977.3 +14.5
18 20.05 З 3 10 км 6/0
[Ac trans]
+5.3 -3.2 54 +2 +2 очень
холодно
1012.8 978.2
21 20.05 З 1 10 км 6/0
[Ac trans]
+5.6 -2.0 58 +5 +5 холодно 1013.1 978.5
00 21.05 З 2 10 км 6/0
[Ac trans]
+4.9 -1.0 66 +3 +3 холодно 1013.7 979.0
03 21.05 СЗ 5 10 км 3/0
[Ac trans]
+7.1 -0.4 59 +4 +5 очень
холодно
1014.1 979.6 +4.0
06 21.05 СЗ 5 10 км 8/8 1300 м
[Cu hum]
+10.8 -1.5 42 +8 +10 очень
холодно
1013.8 979.8
09 21.05 СЗ 7
{12}
10 км 8/8 1200 м
[Cb cap]
+14.0 -3.8 29 +12 +13 очень
холодно
1013.3 979.6
12 21.05 З 6-11
{11}
10 км в посл. час ливневой дождь 8/8 1380 м
[Cb cap]
+14.1 -2.1 33 +12 +13 очень
холодно
1014.1 980.5
15 21.05 З 3
{12}
10 км 8/3 1000 м
[Cb cap Ac cuf]
+11.3 -3.2 36 +10 +10 очень
холодно
1015.3 981.3 +14.7 0.0
18 21.05 З 3
{11}
10 км 4/0
[Ac trans]
+6.9 -2.2 52 +4 +4 очень
холодно
1017.3 982.7
21 21.05 З 3 10 км 4/0
[Ac trans]
+5.1 -3.2 55 +2 +2 очень
холодно
1017.9 983.1
00 22.05 З 4 10 км 6/0
[Ac trans]
+4.3 -3.1 59 0 0 очень
холодно
1018.2 983.3
03 22.05 З 4 10 км 6/0
[Ac trans]
+8.7 -2.7 45 +6 +8 холодно 1018.6 984.2 +4.2
06 22.05 СЗ 5
{11}
10 км 8/0
[Ac trans]
+14.1 -5.8 25 +13 +16 прохладно 1018.1 984.3
09 22.05 З 6
{12}
10 км 8/8 1300 м
[Cu hum]
+16.9 -4.4 23 +16 +17 прохладно 1016.7 983.3
12 22.05 СЗ 8-11
{12}
10 км 8/8 1300 м
[Cu hum]
+18.0 -4.2 22 +17 +17 холодно 1015.7 982.5
15 22.05 З 3
{12}
10 км 8/0
[Ac trans]
+17.0 -1.5 28 +17 +17 по сезону 1015.7 982.3 +19.0
18 22.05 ЮЗ 2 10 км 8/8 1200 м
[Cb cap]
+14.8 +0.3 37 +15 +15 по сезону 1015.9 982.3
21 22.05 ЮЗ 3 10 км 8/8 1200 м
[Sc diur, vesp]
+13.3 +2.0 46 +12 +12 по сезону 1015.4 981.7
00 23.05 ЮЗ 2 10 км {ливн. осадки} 10/10 1000 м
[Cb calv]
+11.0 +7.0 76 +10 +10 по сезону 1016.3 982.3
03 23.05 ЮЗ 4 10 км {ливн. осадки} 6/6 1500 м
[Cb calv]
+15.0 +5.1 52 +14 +15 по сезону 1014.8 981.3 +10.8 0.3
06 23.05 З 6-11
{11}
10 км {ливн. осадки} 9/0
[Ac trans Ci fib]
+21.1 +2.5 29 +21 +24 комфорт 1013.4 980.7
09 23.05 З 5-11
{13}
10 км 9/0
[Ac trans Ci fib]
+23.8 -1.4 19 +22 +27 комфорт 1012.3 979.8
12 23.05 З 5-11
{13}
10 км 9/8 1500 м
[Cu hum Ci fib]
+23.2 -1.7 19 +22 +22 комфорт 1011.4 978.8
15 23.05 ЮЗ 6
{13}
10 км 9/0
[Ci fib]
+21.5 -5.3 16 +20 +21 тепло 1010.6 977.9 +24.1
18 23.05 ЮЗ 4 10 км 8/0
[Ci fib]
+13.2 -2.3 34 +12 +12 прохладно 1011.2 977.6
21 23.05 ЮЗ 7 10 км 8/0
[Ci fib]
+12.5 -3.6 32 +10 +10 по сезону 1010.3 976.6
00 24.05 ЮЗ 8
{10}
10 км 6/0
[Ci fib]
+11.9 -4.9 31 +9 +9 по сезону 1009.4 975.7
03 24.05 ЮЗ 9-12
{13}
10 км 8/0
[Ci fib]
+17.0 -4.1 23 +16 +16 тепло 1008.2 975.1 +11.3
06 24.05 ЮЗ 9-11
{15}
10 км 9/0
[Ci]
+22.5 -7.5 13 +21 +22 комфорт 1006.1 973.7
09 24.05 ЮЗ 10-15
{16}
10 км 9/0
[Ac trans Ci fib]
+23.7 -8.4 11 +21 +22 комфорт 1004.6 972.3
12 24.05 ЮЗ 7-12
{15}
10 км 9/0
[Ac As Ci fib]
+23.0 -4.5 16 +21 +22 комфорт 1003.6 971.3
15 24.05 ЮЗ 9-13
{15}
10 км 9/0
[Ac trans]
+20.4 +2.2 30 +20 +20 тепло 1003.0 970.5 +24.4
18 24.05 З 3
{15}
10 км в посл. час ливневой дождь 9/0
[Ac trans]
+14.5 +12.0 85 +14 +14 по сезону 1005.1 972.0
21 24.05 С 8-12
{12}
10 км слаб. ливневой дождь 9/8 450 м
[Cb cap Ac cuf]
+10.2 +8.7 90 +6 +6 холодно 1008.0 974.2
00 25.05 С 8-11
{14}
10 км {ливн. осадки} 8/0
[Ac trans]
+6.2 +2.2 76 +1 +1 очень
холодно
1012.1 977.6
03 25.05 С 9-12
{14}
10 км {ливн. осадки} 1/0
[Ci fib]
+6.6 -1.3 57 +2 +2 очень
холодно
1015.3 980.8 +5.3 0.6
06 25.05 С 7
{12}
10 км ясно +10.7 -3.7 36 +8 +12 очень
холодно
1016.9 982.8

 

Местоположение метеостанции Орск (Оренбургская область, Россия): широта 51.07 долгота 58.60 высота над уровнем моря 285 м.

В архиве по умолчанию представлена погода в Орске за последнюю неделю. Архивные данные за месяц целиком и за предыдущие месяцы, начиная с января 2011 года, Вы можете получить, выбрав интересующий диапазон дат из раскрывающегося списка и нажав кнопку "Ввод!".


*Определитесь, кто Вы:
робот инопланетянин человек

Внимание! Время в таблицах - всемирное. Для получения местного времени необходимо прибавить поправку, которая равна 5 ч.

Смотрите также архив погоды в соседних городах и на ближайших метеорологических станциях:

Погода в Степном (Актюбинская область, Казахстан) (39 км)
Погода в Кос-Истеке (Актюбинская область, Казахстан) (62 км)
Погода в Домбаровском (Оренбургская область, Россия) (76 км)
Погода в Энергетике (Оренбургская область, Россия) (79 км)
Погода в Акъяре (Башкирия, Россия) (94 км)
Погода в Кувандыке (Оренбургская область, Россия) (96 км)
Погода в Акжаре (Актюбинская область, Казахстан) (103 км)
Погода в Родниковке (Актюбинская область, Казахстан) (111 км)
Погода в Айдырля (Оренбургская область, Россия) (132 км)
Погода в Актобе (Актюбинская область, Казахстан) (135 км)

Пояснения к столбцам:

Ветер - указаны скорость ветра в м/с - средняя за 10 мин, порывы в срок и между сроками (в фигурных скобках) и направление, откуда дует ветер: С - северный, СВ - северо-восточный, В - восточный, ЮВ - юго-восточный, Ю - южный, ЮЗ - юго-западный, З - западный, СЗ - северо-западный.
Видимость - горизонтальная дальность видимости в метрах или километрах. При видимости от 1 до 10 км при отсутствии осадков обычно наблюдается дымка, при ухудшении видимости до 1 км и менее - туман. В сухую погоду видимость может ухудшаться дымом, пылью или мглою.
Явления - указаны атмосферные явления, наблюдавшиеся в срок или в последний час перед сроком; фигурными скобками обозначены явления, наблюдавшиеся между сроками (за 1-3 часа до срока); квадратными скобками обозначены град или гололедные отложения с указанием их диаметра в мм.
Облачность - указаны через наклонную черту общая и нижняя облачность в баллах и высота нижней границы облаков в метрах; квадратными скобками обозначены формы облаков: Ci - перистые, Cs - перисто-слоистые, Cc - перисто-кучевые, Ac - высококучевые, As - высокослоистые, Sc - слоисто-кучевые, Ns - слоисто-дождевые, Cu - кучевые, Cb - кучево-дождевые. Подробнее классификацию облаков см. в Атласе облаков (PDF).
T - Температура воздуха - температура, измеренная на высоте 2 м над землей.
Td - Температура точки росы - температура, при понижении до которой содержащийся в воздухе водяной пар достигнет насыщения.
f - Относительная влажность воздуха - влажноcть воздуха, измеренная на высоте 2 м над землей.
Te - Эффективная температура - температура, которую ощущает одетый по сезону человек в тени. Характеристика душности погоды. При расчете учитывается влияние влажности воздуха и скорости ветра на теплоощущения человека.
Tes - Эффективная температура на солнце - температура, которую ощущает человек, с поправкой на солнечный нагрев. Характеристика знойности погоды. Зависит от высоты солнца над горизонтом, облачности и скорости ветра. Ночью, в пасмурную погоду, а также при ветре 12 м/с и более поправка равна нулю.
P - Атмосферное давление - приведенное к уровню моря атмосферное давление.
Po - Атмосферное давление - измеренное на уровне метеостанции атмосферное давление.
Tmin - Минимальная температура - минимум температуры воздуха на высоте 2 м над землей.
Tmax - Максимальная температура - максимум температуры воздуха на высоте 2 м над землей.
R - Количество осадков - Количество выпавших осадков за период времени, мм. При наведении курсора мыши на число - период времени, за который выпало указанное количество осадков.
R24 - Количество осадков - Количество выпавших осадков за 24 часа, мм.
S - Снежный покров - Высота снежного покрова, см. При наведении курсора мыши на число - состояние снежного покрова и степень покрытия местности в баллах.